START_TIME,STEP,MOV.,M34,t_acc.,L5,t_acc.,L18,t_acc.,L14,t_acc.
1979-07-14 06:00:24.990 ,0,1,0.,12.0,0.,12.0,0.,12.0,0.,12.0
1979-07-14 06:00:36.990 ,0,1,0.,12.0,0.,12.0,0.,12.0,0.,12.0
1979-07-14 06:00:48.990 ,3,1,0.,12.0,0.,12.0,0.,12.0,0.,12.0
1979-07-14 06:01:00.990 ,3,1,0.,12.0,0.,12.0,0.,12.0,0.,12.0
1979-07-14 06:01:12.990 ,7,1,0.,12.0,0.,12.0,0.,12.0,0.,12.0
1979-07-14 06:01:24.990 ,7,1,0.,12.0,0.,12.0,0.,12.0,0.,12.0
1979-07-14 06:01:36.990 ,4,1,0.,12.0,0.,12.0,0.,12.0,0.,12.0
1979-07-14 06:01:48.990 ,4,1,0.,12.0,0.,12.0,0.,12.0,0.,12.0
1979-07-14 06:02:00.990 ,0,1,0.,12.0,0.,12.0,0.,12.0,0.,12.0
1979-07-14 06:02:12.990 ,0,1,0.,12.0,0.,12.0,0.,12.0,0.,12.0
1979-07-14 06:02:24.990 ,3,1,0.,12.0,0.,12.0,0.,12.0,0.,12.0
1979-07-14 06:02:36.990 ,3,1,0.,12.0,0.,12.0,0.,12.0,0.,12.0
1979-07-14 06:02:48.990 ,7,1,0.,12.0,0.,12.0,0.,12.0,0.,12.0
1979-07-14 06:03:00.990 ,7,1,0.,12.0,0.,12.0,0.,12.0,0.,12.0
1979-07-14 06:03:12.990 ,4,1,0.,12.0,0.,12.0,0.,12.0,0.,12.0
1979-07-14 06:03:24.990 ,4,1,0.,12.0,0.,12.0,0.,12.0,0.,12.0
1979-07-14 06:03:36.990 ,0,1,0.,12.0,0.,12.0,0.,12.0,0.,12.0
1979-07-14 06:03:48.990 ,0,1,0.,12.0,0.,12.0,0.,12.0,0.,12.0
1979-07-14 06:04:00.990 ,3,1,0.,12.0,0.,12.0,0.,12.0,0.,12.0
1979-07-14 06:04:12.990 ,3,1,0.,12.0,0.,12.0,0.,12.0,0.,12.0
1979-07-14 06:04:24.990 ,7,1,0.,12.0,0.,12.0,0.,12.0,0.,12.0
1979-07-14 06:04:36.990 ,7,1,0.,12.0,0.,12.0,0.,12.0,0.,12.0
1979-07-14 06:04:48.990 ,4,1,0.,12.0,0.,12.0,0.,12.0,0.,12.0
1979-07-14 06:05:00.990 ,4,1,0.,12.0,0.,12.0,0.,12.0,0.,12.0
1979-07-14 06:05:12.990 ,0,1,0.,12.0,0.,12.0,0.,12.0,0.,12.0
1979-07-14 06:05:24.990 ,0,1,0.,12.0,0.,12.0,0.,12.0,0.,12.0
1979-07-14 06:05:36.990 ,0,0,0.,12.0,0.,12.0,0.,12.0,0.,12.0
1979-07-14 06:05:48.990 ,0,0,0.,12.0,0.,12.0,0.,12.0,0.,12.0
1979-07-14 06:06:00.990 ,0,0,0.,12.0,0.,12.0,0.,12.0,0.,12.0
1979-07-14 06:06:12.990 ,0,0,0.,12.0,0.,12.0,0.,12.0,0.,12.0
1979-07-14 06:06:24.990 ,5,1,0.,12.0,0.,12.0,0.,12.0,0.,12.0
1979-07-14 06:06:36.990 ,5,1,0.,12.0,0.,12.0,0.,12.0,0.,12.0
1979-07-14 06:06:48.990 ,5,0,0.,12.0,0.,12.0,0.,12.0,0.,12.0
1979-07-14 06:07:00.990 ,5,0,0.,12.0,0.,12.0,0.,12.0,0.,12.0
1979-07-14 06:07:12.990 ,4,1,0.,12.0,0.,12.0,0.,12.0,0.,12.0
1979-07-14 06:07:24.990 ,4,1,0.,12.0,0.,12.0,0.,12.0,0.,12.0
1979-07-14 06:07:36.990 ,4,0,0.,12.0,0.,12.0,0.,12.0,0.,12.0
1979-07-14 06:07:48.990 ,4,0,0.,12.0,0.,12.0,0.,12.0,0.,12.0
1979-07-14 06:08:00.990 ,3,1,0.,12.0,0.,12.0,0.,12.0,0.,12.0
1979-07-14 06:08:12.990 ,3,1,0.,12.0,0.,12.0,0.,12.0,0.,12.0
1979-07-14 06:08:24.990 ,3,0,0.,12.0,0.,12.0,0.,12.0,0.,12.0
1979-07-14 06:08:36.990 ,3,0,0.,12.0,0.,12.0,0.,12.0,0.,12.0
1979-07-14 06:08:48.990 ,2,1,0.,12.0,0.,12.0,0.,12.0,0.,12.0
1979-07-14 06:09:00.990 ,2,1,0.,12.0,0.,12.0,0.,12.0,0.,12.0
1979-07-14 06:09:12.990 ,2,0,0.,12.0,0.,12.0,0.,12.0,0.,12.0
1979-07-14 06:09:24.990 ,2,0,0.,12.0,0.,12.0,0.,12.0,0.,12.0
1979-07-14 06:09:36.990 ,1,1,0.,12.0,0.,12.0,0.,12.0,0.,12.0
1979-07-14 06:09:48.990 ,1,1,0.,12.0,0.,12.0,0.,12.0,0.,12.0
1979-07-14 06:10:00.990 ,1,0,0.,12.0,0.,12.0,0.,12.0,0.,12.0
1979-07-14 06:10:12.990 ,1,0,0.,12.0,0.,12.0,0.,12.0,0.,12.0
1979-07-14 06:10:24.990 ,0,1,0.,12.0,0.,12.0,0.,12.0,0.,12.0
1979-07-14 06:10:36.990 ,0,1,0.,12.0,0.,12.0,0.,12.0,0.,12.0
1979-07-14 06:10:48.990 ,0,0,0.,12.0,0.,12.0,0.,12.0,0.,12.0
1979-07-14 06:11:00.990 ,0,0,0.,12.0,0.,12.0,0.,12.0,0.,12.0
1979-07-14 06:11:12.990 ,0,1,0.,12.0,0.,12.0,0.,12.0,0.,12.0
1979-07-14 06:11:24.990 ,0,1,0.,12.0,0.,12.0,0.,12.0,0.,12.0
1979-07-14 06:11:36.990 ,0,0,0.,12.0,0.,12.0,0.,12.0,0.,12.0
1979-07-14 06:11:48.990 ,0,0,0.,12.0,0.,12.0,0.,12.0,0.,12.0
1979-07-14 06:12:00.990 ,1,1,0.,12.0,0.,12.0,0.,12.0,0.,12.0
1979-07-14 06:12:12.990 ,1,1,0.,12.0,0.,12.0,0.,12.0,0.,12.0
1979-07-14 06:12:24.990 ,1,0,0.,12.0,0.,12.0,0.,12.0,0.,12.0
1979-07-14 06:12:36.990 ,1,0,0.,12.0,0.,12.0,0.,12.0,0.,12.0
1979-07-14 06:12:48.990 ,2,1,0.,12.0,0.,12.0,0.,12.0,0.,12.0
1979-07-14 06:13:00.990 ,2,1,0.,12.0,0.,12.0,0.,12.0,0.,12.0
1979-07-14 06:13:12.990 ,2,0,0.,12.0,0.,12.0,0.,12.0,0.,12.0
1979-07-14 06:13:24.990 ,2,0,0.,12.0,0.,12.0,0.,12.0,0.,12.0
1979-07-14 06:13:36.990 ,3,1,1.,12.0,0.,12.0,0.,12.0,0.,12.0
1979-07-14 06:13:48.990 ,3,1,0.,12.0,0.,12.0,0.,12.0,0.,12.0
1979-07-14 06:14:00.990 ,3,0,0.,12.0,0.,12.0,0.,12.0,0.,12.0
1979-07-14 06:14:12.990 ,3,0,0.,12.0,0.,12.0,0.,12.0,0.,12.0
1979-07-14 06:14:24.990 ,4,1,0.,12.0,0.,12.0,0.,12.0,0.,12.0
1979-07-14 06:14:36.990 ,4,1,0.,12.0,0.,12.0,0.,12.0,0.,12.0
1979-07-14 06:14:48.990 ,4,0,0.,12.0,0.,12.0,0.,12.0,0.,12.0
1979-07-14 06:15:00.990 ,4,0,0.,12.0,0.,12.0,0.,12.0,0.,12.0
1979-07-14 06:15:12.990 ,5,1,0.,12.0,0.,12.0,0.,12.0,0.,12.0
1979-07-14 06:15:24.990 ,5,1,0.,12.0,0.,12.0,0.,12.0,0.,12.0
1979-07-14 06:15:36.990 ,5,0,0.,12.0,0.,12.0,0.,12.0,0.,12.0
1979-07-14 06:15:48.990 ,5,0,0.,12.0,0.,12.0,0.,12.0,0.,12.0
1979-07-14 06:16:00.990 ,6,1,0.,12.0,0.,12.0,0.,12.0,0.,12.0
1979-07-14 06:16:12.990 ,6,1,0.,12.0,0.,12.0,0.,12.0,0.,12.0
1979-07-14 06:16:24.990 ,6,0,0.,12.0,0.,12.0,0.,12.0,0.,12.0
1979-07-14 06:16:36.990 ,6,0,0.,12.0,0.,12.0,0.,12.0,0.,12.0
1979-07-14 06:16:48.990 ,7,1,0.,12.0,0.,12.0,0.,12.0,0.,12.0
1979-07-14 06:17:00.990 ,7,1,0.,12.0,0.,12.0,0.,12.0,0.,12.0
1979-07-14 06:17:12.990 ,7,0,0.,12.0,0.,12.0,0.,12.0,0.,12.0
1979-07-14 06:17:24.990 ,7,0,0.,12.0,0.,12.0,0.,12.0,0.,12.0
1979-07-14 06:17:36.990 ,7,1,0.,12.0,0.,12.0,0.,12.0,0.,12.0
1979-07-14 06:17:48.990 ,7,1,0.,12.0,0.,12.0,0.,12.0,0.,12.0
1979-07-14 06:18:00.990 ,7,0,0.,12.0,0.,12.0,0.,12.0,0.,12.0
1979-07-14 06:18:12.990 ,7,0,0.,12.0,0.,12.0,0.,12.0,0.,12.0
1979-07-14 06:18:24.990 ,6,1,0.,12.0,0.,12.0,0.,12.0,0.,12.0
1979-07-14 06:18:36.990 ,6,1,0.,12.0,0.,12.0,0.,12.0,0.,12.0
1979-07-14 06:18:48.990 ,6,0,0.,12.0,0.,12.0,0.,12.0,0.,12.0
1979-07-14 06:19:00.990 ,6,0,0.,12.0,0.,12.0,0.,12.0,0.,12.0
1979-07-14 06:19:12.990 ,5,1,0.,12.0,0.,12.0,0.,12.0,0.,12.0
1979-07-14 06:19:24.990 ,5,1,0.,12.0,0.,12.0,0.,12.0,0.,12.0
1979-07-14 06:19:36.990 ,5,0,0.,12.0,0.,12.0,0.,12.0,0.,12.0
1979-07-14 06:19:48.990 ,5,0,0.,12.0,0.,12.0,0.,12.0,0.,12.0
1979-07-14 06:20:00.990 ,4,1,0.,12.0,0.,12.0,0.,12.0,0.,12.0
1979-07-14 06:20:12.990 ,4,1,0.,12.0,0.,12.0,0.,12.0,0.,12.0
1979-07-14 06:20:24.990 ,4,0,1.,12.0,0.,12.0,0.,12.0,0.,12.0
1979-07-14 06:20:36.990 ,4,0,0.,12.0,0.,12.0,0.,12.0,0.,12.0
1979-07-14 06:20:48.990 ,3,1,0.,12.0,0.,12.0,0.,12.0,0.,12.0
1979-07-14 06:21:00.990 ,3,1,0.,12.0,0.,12.0,0.,12.0,0.,12.0
1979-07-14 06:21:12.990 ,3,0,0.,12.0,0.,12.0,0.,12.0,0.,12.0
1979-07-14 06:21:24.990 ,3,0,0.,12.0,0.,12.0,0.,12.0,0.,12.0
1979-07-14 06:21:36.990 ,2,1,0.,12.0,0.,12.0,0.,12.0,0.,12.0
1979-07-14 06:21:48.990 ,2,1,0.,12.0,0.,12.0,0.,12.0,0.,12.0
1979-07-14 06:22:00.990 ,2,0,0.,12.0,0.,12.0,0.,12.0,0.,12.0
1979-07-14 06:22:12.990 ,2,0,0.,12.0,0.,12.0,0.,12.0,0.,12.0
1979-07-14 06:22:24.990 ,1,1,0.,12.0,0.,12.0,0.,12.0,0.,12.0
1979-07-14 06:22:36.990 ,1,1,0.,12.0,0.,12.0,0.,12.0,0.,12.0
1979-07-14 06:22:48.990 ,1,0,0.,12.0,0.,12.0,0.,12.0,0.,12.0
1979-07-14 06:23:00.990 ,1,0,0.,12.0,0.,12.0,0.,12.0,0.,12.0
1979-07-14 06:23:12.990 ,0,1,0.,12.0,0.,12.0,0.,12.0,0.,12.0
1979-07-14 06:23:24.990 ,0,1,0.,12.0,0.,12.0,0.,12.0,0.,12.0
1979-07-14 06:23:36.990 ,0,0,0.,12.0,0.,12.0,0.,12.0,0.,12.0
1979-07-14 06:23:48.990 ,0,0,0.,12.0,0.,12.0,0.,12.0,0.,12.0
1979-07-14 06:24:00.990 ,0,1,0.,12.0,0.,12.0,0.,12.0,0.,12.0
1979-07-14 06:24:12.990 ,0,1,0.,12.0,0.,12.0,0.,12.0,0.,12.0
1979-07-14 06:24:24.990 ,0,0,0.,12.0,0.,12.0,0.,12.0,0.,12.0
1979-07-14 06:24:36.990 ,0,0,0.,12.0,0.,12.0,0.,12.0,0.,12.0
1979-07-14 06:24:48.990 ,1,1,0.,12.0,0.,12.0,0.,12.0,0.,12.0
1979-07-14 06:25:00.990 ,1,1,0.,12.0,0.,12.0,0.,12.0,0.,12.0
1979-07-14 06:25:12.990 ,1,0,0.,12.0,0.,12.0,0.,12.0,0.,12.0
1979-07-14 06:25:24.990 ,1,0,0.,12.0,0.,12.0,0.,12.0,0.,12.0
1979-07-14 06:25:36.990 ,2,1,1.,12.0,0.,12.0,0.,12.0,0.,12.0
1979-07-14 06:25:48.990 ,2,1,0.,12.0,0.,12.0,0.,12.0,0.,12.0
1979-07-14 06:26:00.990 ,2,0,0.,12.0,0.,12.0,0.,12.0,0.,12.0
1979-07-14 06:26:12.990 ,2,0,0.,12.0,0.,12.0,0.,12.0,0.,12.0
1979-07-14 06:26:24.990 ,3,1,0.,12.0,0.,12.0,0.,12.0,0.,12.0
1979-07-14 06:26:36.990 ,3,1,0.,12.0,0.,12.0,0.,12.0,0.,12.0
1979-07-14 06:26:48.990 ,3,0,0.,12.0,0.,12.0,0.,12.0,0.,12.0
1979-07-14 06:27:00.990 ,3,0,0.,12.0,0.,12.0,0.,12.0,0.,12.0
1979-07-14 06:27:12.990 ,4,1,0.,12.0,0.,12.0,0.,12.0,0.,12.0
1979-07-14 06:27:24.990 ,4,1,0.,12.0,0.,12.0,0.,12.0,0.,12.0
1979-07-14 06:27:36.990 ,4,0,0.,12.0,0.,12.0,0.,12.0,0.,12.0
1979-07-14 06:27:48.990 ,4,0,0.,12.0,0.,12.0,0.,12.0,0.,12.0
1979-07-14 06:28:00.990 ,5,1,0.,12.0,0.,12.0,0.,12.0,0.,12.0
1979-07-14 06:28:12.990 ,5,1,0.,12.0,0.,12.0,0.,12.0,0.,12.0
1979-07-14 06:28:24.990 ,5,0,0.,12.0,0.,12.0,0.,12.0,0.,12.0
1979-07-14 06:28:36.990 ,5,0,0.,12.0,0.,12.0,0.,12.0,0.,12.0
1979-07-14 06:28:48.990 ,6,1,0.,12.0,0.,12.0,0.,12.0,0.,12.0
1979-07-14 06:29:00.990 ,6,1,0.,12.0,0.,12.0,0.,12.0,0.,12.0
1979-07-14 06:29:12.990 ,6,0,0.,12.0,0.,12.0,0.,12.0,0.,12.0
1979-07-14 06:29:24.990 ,6,0,0.,12.0,0.,12.0,0.,12.0,0.,12.0
1979-07-14 06:29:36.990 ,7,1,0.,12.0,0.,12.0,0.,12.0,0.,12.0
1979-07-14 06:29:48.990 ,7,1,0.,12.0,0.,12.0,0.,12.0,0.,12.0
1979-07-14 06:30:00.990 ,7,0,0.,12.0,0.,12.0,0.,12.0,0.,12.0
1979-07-14 06:30:12.990 ,7,0,0.,12.0,0.,12.0,0.,12.0,0.,12.0
1979-07-14 06:30:24.990 ,7,1,0.,12.0,0.,12.0,0.,12.0,0.,12.0
1979-07-14 06:30:36.990 ,7,1,0.,12.0,0.,12.0,0.,12.0,0.,12.0
1979-07-14 06:30:48.990 ,7,0,0.,12.0,0.,12.0,0.,12.0,0.,12.0
1979-07-14 06:31:00.990 ,7,0,0.,12.0,0.,12.0,0.,12.0,0.,12.0
1979-07-14 06:31:12.990 ,6,1,0.,12.0,0.,12.0,0.,12.0,0.,12.0
1979-07-14 06:31:24.990 ,6,1,0.,12.0,0.,12.0,0.,12.0,0.,12.0
1979-07-14 06:31:36.990 ,6,0,0.,12.0,0.,12.0,0.,12.0,0.,12.0
1979-07-14 06:31:48.990 ,6,0,0.,12.0,0.,12.0,0.,12.0,0.,12.0
1979-07-14 06:32:00.990 ,5,1,0.,12.0,0.,12.0,0.,12.0,0.,12.0
1979-07-14 06:32:12.990 ,5,1,0.,12.0,0.,12.0,0.,12.0,0.,12.0
1979-07-14 06:32:24.990 ,5,0,0.,12.0,0.,12.0,0.,12.0,0.,12.0
1979-07-14 06:32:36.990 ,5,0,0.,12.0,0.,12.0,0.,12.0,0.,12.0
1979-07-14 06:32:48.990 ,4,1,0.,12.0,0.,12.0,0.,12.0,0.,12.0
1979-07-14 06:33:00.990 ,4,1,0.,12.0,0.,12.0,0.,12.0,0.,12.0
1979-07-14 06:33:12.990 ,4,0,0.,12.0,0.,12.0,0.,12.0,0.,12.0
1979-07-14 06:33:24.990 ,4,0,0.,12.0,0.,12.0,0.,12.0,0.,12.0
1979-07-14 06:33:36.990 ,3,1,0.,12.0,0.,12.0,0.,12.0,0.,12.0
1979-07-14 06:33:48.990 ,3,1,0.,12.0,0.,12.0,0.,12.0,0.,12.0
1979-07-14 06:34:00.990 ,3,0,0.,12.0,0.,12.0,0.,12.0,0.,12.0
1979-07-14 06:34:12.990 ,3,0,0.,12.0,0.,12.0,0.,12.0,0.,12.0
1979-07-14 06:34:24.990 ,2,1,0.,12.0,0.,12.0,0.,12.0,0.,12.0
1979-07-14 06:34:36.990 ,2,1,0.,12.0,0.,12.0,0.,12.0,0.,12.0
1979-07-14 06:34:48.990 ,2,0,0.,12.0,0.,12.0,0.,12.0,0.,12.0
1979-07-14 06:35:00.990 ,2,0,0.,12.0,0.,12.0,0.,12.0,0.,12.0
1979-07-14 06:35:12.990 ,1,1,0.,12.0,0.,12.0,0.,12.0,0.,12.0
1979-07-14 06:35:24.990 ,1,1,0.,12.0,0.,12.0,0.,12.0,0.,12.0
1979-07-14 06:35:36.990 ,1,0,0.,12.0,0.,12.0,0.,12.0,0.,12.0
1979-07-14 06:35:48.990 ,1,0,0.,12.0,0.,12.0,0.,12.0,0.,12.0
1979-07-14 06:36:00.990 ,0,1,0.,12.0,0.,12.0,0.,12.0,0.,12.0
1979-07-14 06:36:12.990 ,0,1,0.,12.0,0.,12.0,0.,12.0,0.,12.0
1979-07-14 06:36:24.990 ,0,0,0.,12.0,0.,12.0,0.,12.0,0.,12.0
1979-07-14 06:36:36.990 ,0,0,0.,12.0,0.,12.0,0.,12.0,0.,12.0
1979-07-14 06:36:48.990 ,0,1,0.,12.0,0.,12.0,0.,12.0,0.,12.0
1979-07-14 06:37:00.990 ,0,1,0.,12.0,0.,12.0,0.,12.0,0.,12.0
1979-07-14 06:37:12.990 ,0,0,0.,12.0,0.,12.0,0.,12.0,0.,12.0
1979-07-14 06:37:24.990 ,0,0,0.,12.0,0.,12.0,0.,12.0,0.,12.0
1979-07-14 06:37:36.990 ,1,1,0.,12.0,0.,12.0,0.,12.0,0.,12.0
1979-07-14 06:37:48.990 ,1,1,0.,12.0,0.,12.0,0.,12.0,0.,12.0
1979-07-14 06:38:00.990 ,1,0,0.,12.0,0.,12.0,0.,12.0,0.,12.0
1979-07-14 06:38:12.990 ,1,0,0.,12.0,0.,12.0,0.,12.0,0.,12.0
1979-07-14 06:38:24.990 ,2,1,0.,12.0,0.,12.0,0.,12.0,0.,12.0
1979-07-14 06:38:36.990 ,2,1,0.,12.0,0.,12.0,0.,12.0,0.,12.0
1979-07-14 06:38:48.990 ,2,0,0.,12.0,0.,12.0,0.,12.0,0.,12.0
1979-07-14 06:39:00.990 ,2,0,0.,12.0,0.,12.0,0.,12.0,0.,12.0
1979-07-14 06:39:12.990 ,3,1,0.,12.0,0.,12.0,0.,12.0,0.,12.0
1979-07-14 06:39:24.990 ,3,1,0.,12.0,0.,12.0,0.,12.0,0.,12.0
1979-07-14 06:39:36.990 ,3,0,0.,12.0,0.,12.0,0.,12.0,0.,12.0
1979-07-14 06:39:48.990 ,3,0,0.,12.0,0.,12.0,0.,12.0,0.,12.0
1979-07-14 06:40:00.990 ,4,1,0.,12.0,0.,12.0,0.,12.0,0.,12.0
1979-07-14 06:40:12.990 ,4,1,0.,12.0,0.,12.0,0.,12.0,0.,12.0
1979-07-14 06:40:24.990 ,4,0,0.,12.0,0.,12.0,0.,12.0,0.,12.0
1979-07-14 06:40:36.990 ,4,0,0.,12.0,0.,12.0,0.,12.0,0.,12.0
1979-07-14 06:40:48.990 ,5,1,0.,12.0,0.,12.0,0.,12.0,0.,12.0
1979-07-14 06:41:00.990 ,5,1,0.,12.0,0.,12.0,0.,12.0,0.,12.0
1979-07-14 06:41:12.990 ,5,0,0.,12.0,0.,12.0,0.,12.0,0.,12.0
1979-07-14 06:41:24.990 ,5,0,0.,12.0,0.,12.0,0.,12.0,0.,12.0
1979-07-14 06:41:36.990 ,6,1,0.,12.0,0.,12.0,0.,12.0,0.,12.0
1979-07-14 06:41:48.990 ,6,1,0.,12.0,0.,12.0,0.,12.0,0.,12.0
1979-07-14 06:42:00.990 ,6,0,0.,12.0,0.,12.0,0.,12.0,0.,12.0
1979-07-14 06:42:12.990 ,6,0,0.,12.0,0.,12.0,0.,12.0,0.,12.0
1979-07-14 06:42:24.990 ,7,0,0.,12.0,0.,12.0,0.,12.0,0.,12.0
1979-07-14 06:42:36.990 ,7,0,0.,12.0,0.,12.0,0.,12.0,0.,12.0
1979-07-14 06:42:48.990 ,7,0,0.,12.0,0.,12.0,0.,12.0,0.,12.0
1979-07-14 06:43:00.990 ,7,0,0.,12.0,0.,12.0,0.,12.0,0.,12.0
1979-07-14 06:43:12.990 ,4,1,0.,12.0,0.,12.0,0.,12.0,0.,12.0
1979-07-14 06:43:24.990 ,4,1,0.,12.0,0.,12.0,0.,12.0,0.,12.0
1979-07-14 06:43:36.990 ,0,1,0.,12.0,0.,12.0,0.,12.0,0.,12.0
1979-07-14 06:43:48.990 ,0,1,0.,12.0,0.,12.0,0.,12.0,0.,12.0
1979-07-14 06:44:00.990 ,3,1,0.,12.0,0.,12.0,0.,12.0,0.,12.0
1979-07-14 06:44:12.990 ,3,1,0.,12.0,0.,12.0,0.,12.0,0.,12.0
1979-07-14 06:44:24.990 ,7,1,0.,12.0,0.,12.0,0.,12.0,0.,12.0
1979-07-14 06:44:36.990 ,7,1,0.,12.0,0.,12.0,0.,12.0,0.,12.0
1979-07-14 06:44:48.990 ,4,1,0.,12.0,0.,12.0,0.,12.0,0.,12.0
1979-07-14 06:45:00.990 ,4,1,0.,12.0,0.,12.0,0.,12.0,0.,12.0
1979-07-14 06:45:12.990 ,0,1,0.,12.0,0.,12.0,0.,12.0,0.,12.0
1979-07-14 06:45:24.990 ,0,1,0.,12.0,0.,12.0,0.,12.0,0.,12.0
1979-07-14 06:45:36.990 ,3,1,0.,12.0,0.,12.0,0.,12.0,0.,12.0
1979-07-14 06:45:48.990 ,3,1,0.,12.0,0.,12.0,0.,12.0,0.,12.0
1979-07-14 06:46:00.990 ,7,1,0.,12.0,0.,12.0,0.,12.0,0.,12.0
1979-07-14 06:46:12.990 ,7,1,0.,12.0,0.,12.0,0.,12.0,0.,12.0
1979-07-14 06:46:24.990 ,4,1,0.,12.0,0.,12.0,0.,12.0,0.,12.0
1979-07-14 06:46:36.990 ,4,1,0.,12.0,0.,12.0,0.,12.0,0.,12.0
1979-07-14 06:46:48.990 ,0,1,0.,12.0,0.,12.0,0.,12.0,0.,12.0
1979-07-14 06:47:00.990 ,0,1,0.,12.0,0.,12.0,0.,12.0,0.,12.0
1979-07-14 06:47:12.990 ,3,1,0.,12.0,0.,12.0,0.,12.0,0.,12.0
1979-07-14 06:47:24.990 ,3,1,0.,12.0,0.,12.0,0.,12.0,0.,12.0
1979-07-14 06:47:36.990 ,7,1,0.,12.0,0.,12.0,0.,12.0,0.,12.0
1979-07-14 06:47:48.990 ,7,1,0.,12.0,0.,12.0,0.,12.0,0.,12.0
1979-07-14 06:48:00.990 ,4,1,0.,12.0,0.,12.0,0.,12.0,0.,12.0
1979-07-14 06:48:12.990 ,4,1,0.,12.0,0.,12.0,0.,12.0,0.,12.0
1979-07-14 06:48:24.990 ,0,1,0.,12.0,0.,12.0,0.,12.0,0.,12.0
1979-07-14 06:48:36.990 ,0,1,0.,12.0,0.,12.0,0.,12.0,0.,12.0
1979-07-14 06:48:48.990 ,3,1,0.,12.0,0.,12.0,0.,12.0,0.,12.0
1979-07-14 06:49:00.990 ,3,1,0.,12.0,0.,12.0,0.,12.0,0.,12.0
1979-07-14 06:49:12.990 ,7,1,0.,12.0,0.,12.0,0.,12.0,0.,12.0
1979-07-14 06:49:24.990 ,7,1,0.,12.0,0.,12.0,0.,12.0,0.,12.0
1979-07-14 06:49:36.990 ,4,1,0.,12.0,0.,12.0,0.,12.0,0.,12.0
1979-07-14 06:49:48.990 ,4,1,0.,12.0,0.,12.0,0.,12.0,0.,12.0
1979-07-14 06:50:00.990 ,0,1,0.,12.0,0.,12.0,0.,12.0,0.,12.0
1979-07-14 06:50:12.990 ,0,1,0.,12.0,0.,12.0,0.,12.0,0.,12.0
1979-07-14 06:50:24.990 ,3,1,0.,12.0,0.,12.0,0.,12.0,0.,12.0
1979-07-14 06:50:36.990 ,3,1,0.,12.0,0.,12.0,0.,12.0,0.,12.0
1979-07-14 06:50:48.990 ,7,1,0.,12.0,0.,12.0,0.,12.0,0.,12.0
1979-07-14 06:51:00.990 ,7,1,0.,12.0,0.,12.0,0.,12.0,0.,12.0
1979-07-14 06:51:12.990 ,4,1,0.,12.0,0.,12.0,0.,12.0,0.,12.0
1979-07-14 06:51:24.990 ,4,1,0.,12.0,0.,12.0,0.,12.0,0.,12.0
1979-07-14 06:51:36.990 ,0,1,0.,12.0,0.,12.0,0.,12.0,0.,12.0
1979-07-14 06:51:48.990 ,0,1,0.,12.0,0.,12.0,0.,12.0,0.,12.0
1979-07-14 06:52:00.990 ,3,1,0.,12.0,0.,12.0,0.,12.0,0.,12.0
1979-07-14 06:52:12.990 ,3,1,0.,12.0,0.,12.0,0.,12.0,0.,12.0
1979-07-14 06:52:24.990 ,7,1,0.,12.0,0.,12.0,0.,12.0,0.,12.0
1979-07-14 06:52:36.990 ,7,1,0.,12.0,0.,12.0,0.,12.0,0.,12.0
1979-07-14 06:52:48.990 ,4,1,0.,12.0,0.,12.0,0.,12.0,0.,12.0
1979-07-14 06:53:00.990 ,4,1,0.,12.0,0.,12.0,0.,12.0,0.,12.0
1979-07-14 06:53:12.990 ,0,1,0.,12.0,0.,12.0,0.,12.0,0.,12.0
1979-07-14 06:53:24.990 ,0,1,0.,12.0,0.,12.0,0.,12.0,0.,12.0
1979-07-14 06:53:36.990 ,0,0,0.,12.0,0.,12.0,0.,12.0,0.,12.0
1979-07-14 06:53:48.990 ,0,0,0.,12.0,0.,12.0,0.,12.0,0.,12.0
1979-07-14 06:54:00.990 ,0,0,0.,12.0,0.,12.0,0.,12.0,0.,12.0
1979-07-14 06:54:12.990 ,0,0,0.,12.0,0.,12.0,0.,12.0,0.,12.0
1979-07-14 06:54:24.990 ,5,1,0.,12.0,0.,12.0,0.,12.0,0.,12.0
1979-07-14 06:54:36.990 ,5,1,0.,12.0,0.,12.0,0.,12.0,0.,12.0
1979-07-14 06:54:48.990 ,0,0,0.,12.0,0.,12.0,0.,12.0,0.,12.0
1979-07-14 06:55:00.990 ,0,0,,0,,0,,0,,0
1979-07-14 06:55:08.190 ,7,0,,0,,0,,0,,0
1979-07-14 06:55:20.190 ,7,0,,0,,0,,0,,0
1979-07-14 06:55:12.990 ,4,1,0.,12.0,0.,12.0,0.,12.0,0.,12.0
1979-07-14 06:55:24.990 ,4,1,0.,12.0,0.,12.0,0.,12.0,0.,12.0
1979-07-14 06:55:36.990 ,4,0,0.,12.0,0.,12.0,0.,12.0,0.,12.0
1979-07-14 06:55:48.990 ,4,0,0.,12.0,0.,12.0,0.,12.0,0.,12.0
1979-07-14 06:56:00.990 ,3,1,0.,12.0,0.,12.0,0.,12.0,0.,12.0
1979-07-14 06:56:12.990 ,3,1,0.,12.0,0.,12.0,0.,12.0,0.,12.0
1979-07-14 06:56:24.990 ,3,0,0.,12.0,0.,12.0,0.,12.0,0.,12.0
1979-07-14 06:56:36.990 ,3,0,0.,12.0,0.,12.0,0.,12.0,0.,12.0
1979-07-14 06:56:48.990 ,2,1,0.,12.0,0.,12.0,0.,12.0,0.,12.0
1979-07-14 06:57:00.990 ,2,1,0.,12.0,0.,12.0,0.,12.0,0.,12.0
1979-07-14 06:57:12.990 ,2,0,0.,12.0,0.,12.0,0.,12.0,0.,12.0
1979-07-14 06:57:24.990 ,2,0,0.,12.0,0.,12.0,0.,12.0,0.,12.0
1979-07-14 06:57:36.990 ,1,1,0.,12.0,0.,12.0,0.,12.0,0.,12.0
1979-07-14 06:57:48.990 ,1,1,0.,12.0,0.,12.0,0.,12.0,0.,12.0
1979-07-14 06:58:00.990 ,1,0,0.,12.0,0.,12.0,0.,12.0,0.,12.0
1979-07-14 06:58:12.990 ,1,0,0.,12.0,0.,12.0,0.,12.0,0.,12.0
1979-07-14 06:58:24.990 ,0,1,0.,12.0,0.,12.0,0.,12.0,0.,12.0
1979-07-14 06:58:36.990 ,0,1,0.,12.0,0.,12.0,0.,12.0,0.,12.0
1979-07-14 06:58:48.990 ,0,0,0.,12.0,0.,12.0,0.,12.0,0.,12.0
1979-07-14 06:59:00.990 ,0,0,0.,12.0,0.,12.0,0.,12.0,0.,12.0
1979-07-14 06:59:12.990 ,0,1,0.,12.0,0.,12.0,0.,12.0,0.,12.0
1979-07-14 06:59:24.990 ,0,1,0.,12.0,0.,12.0,0.,12.0,0.,12.0
1979-07-14 06:59:36.990 ,0,0,0.,12.0,0.,12.0,0.,12.0,0.,12.0
1979-07-14 06:59:48.990 ,0,0,0.,12.0,0.,12.0,0.,12.0,0.,12.0
1979-07-14 07:00:00.990 ,1,1,0.,12.0,0.,12.0,0.,12.0,0.,12.0
1979-07-14 07:00:12.990 ,1,1,0.,12.0,0.,12.0,0.,12.0,0.,12.0
1979-07-14 07:00:24.990 ,1,0,1.,12.0,0.,12.0,0.,12.0,0.,12.0
1979-07-14 07:00:36.990 ,1,0,0.,12.0,0.,12.0,0.,12.0,0.,12.0
1979-07-14 07:00:48.990 ,2,1,0.,12.0,0.,12.0,0.,12.0,0.,12.0
1979-07-14 07:01:00.990 ,2,1,0.,12.0,0.,12.0,0.,12.0,0.,12.0
1979-07-14 07:01:12.990 ,2,0,0.,12.0,0.,12.0,0.,12.0,0.,12.0
1979-07-14 07:01:24.990 ,2,0,0.,12.0,0.,12.0,0.,12.0,0.,12.0
1979-07-14 07:01:36.990 ,3,1,0.,12.0,0.,12.0,0.,12.0,0.,12.0
1979-07-14 07:01:48.990 ,3,1,0.,12.0,0.,12.0,0.,12.0,0.,12.0
1979-07-14 07:02:00.990 ,3,0,0.,12.0,0.,12.0,0.,12.0,0.,12.0
1979-07-14 07:02:12.990 ,3,0,0.,12.0,0.,12.0,0.,12.0,0.,12.0
1979-07-14 07:02:24.990 ,4,1,0.,12.0,0.,12.0,0.,12.0,0.,12.0
1979-07-14 07:02:36.990 ,4,1,0.,12.0,0.,12.0,0.,12.0,0.,12.0
1979-07-14 07:02:48.990 ,4,0,0.,12.0,0.,12.0,0.,12.0,0.,12.0
1979-07-14 07:03:00.990 ,4,0,0.,12.0,0.,12.0,0.,12.0,0.,12.0
1979-07-14 07:03:12.990 ,5,1,0.,12.0,0.,12.0,0.,12.0,0.,12.0
1979-07-14 07:03:24.990 ,5,1,0.,12.0,0.,12.0,0.,12.0,0.,12.0
1979-07-14 07:03:36.990 ,5,0,0.,12.0,0.,12.0,0.,12.0,0.,12.0
1979-07-14 07:03:48.990 ,5,0,0.,12.0,0.,12.0,0.,12.0,0.,12.0
1979-07-14 07:04:02.190 ,6,1,0.,12.0,0.,12.0,0.,12.0,0.,12.0
1979-07-14 07:04:14.190 ,6,1,0.,12.0,0.,12.0,0.,12.0,0.,12.0
1979-07-14 07:04:24.990 ,6,0,0.,12.0,0.,12.0,0.,12.0,0.,12.0
1979-07-14 07:04:36.990 ,6,0,0.,12.0,0.,12.0,0.,12.0,0.,12.0
1979-07-14 07:04:48.990 ,7,1,0.,12.0,0.,12.0,0.,12.0,0.,12.0
1979-07-14 07:05:00.990 ,7,1,0.,12.0,0.,12.0,0.,12.0,0.,12.0
1979-07-14 07:05:12.990 ,7,0,0.,12.0,0.,12.0,0.,12.0,0.,12.0
1979-07-14 07:05:24.990 ,7,0,0.,12.0,0.,12.0,0.,12.0,0.,12.0
1979-07-14 07:05:36.990 ,7,1,0.,12.0,0.,12.0,0.,12.0,0.,12.0
1979-07-14 07:05:48.990 ,7,1,0.,12.0,0.,12.0,0.,12.0,0.,12.0
1979-07-14 07:06:00.990 ,7,0,0.,12.0,0.,12.0,0.,12.0,0.,12.0
1979-07-14 07:06:12.990 ,7,0,0.,12.0,0.,12.0,0.,12.0,0.,12.0
1979-07-14 07:06:24.990 ,6,1,0.,12.0,0.,12.0,0.,12.0,0.,12.0
1979-07-14 07:06:36.990 ,6,1,0.,12.0,0.,12.0,0.,12.0,0.,12.0
1979-07-14 07:06:48.990 ,6,0,0.,12.0,0.,12.0,0.,12.0,0.,12.0
1979-07-14 07:07:00.990 ,6,0,0.,12.0,0.,12.0,0.,12.0,0.,12.0
1979-07-14 07:07:12.990 ,5,1,0.,12.0,0.,12.0,0.,12.0,0.,12.0
1979-07-14 07:07:24.990 ,5,1,0.,12.0,0.,12.0,0.,12.0,0.,12.0
1979-07-14 07:07:36.990 ,5,0,0.,12.0,0.,12.0,0.,12.0,0.,12.0
1979-07-14 07:07:48.990 ,5,0,0.,12.0,0.,12.0,0.,12.0,0.,12.0
1979-07-14 07:08:00.990 ,4,1,0.,12.0,0.,12.0,0.,12.0,0.,12.0
1979-07-14 07:08:12.990 ,4,1,0.,12.0,0.,12.0,0.,12.0,0.,12.0
1979-07-14 07:08:24.990 ,4,0,0.,12.0,0.,12.0,0.,12.0,0.,12.0
1979-07-14 07:08:36.990 ,4,0,0.,12.0,0.,12.0,0.,12.0,0.,12.0
1979-07-14 07:08:48.990 ,3,1,1.,12.0,0.,12.0,0.,12.0,0.,12.0
1979-07-14 07:09:00.990 ,3,1,0.,12.0,0.,12.0,0.,12.0,0.,12.0
1979-07-14 07:09:12.990 ,3,0,0.,12.0,0.,12.0,0.,12.0,0.,12.0
1979-07-14 07:09:24.990 ,3,0,0.,12.0,0.,12.0,0.,12.0,0.,12.0
1979-07-14 07:09:36.990 ,2,1,0.,12.0,0.,12.0,0.,12.0,0.,12.0
1979-07-14 07:09:48.990 ,2,1,0.,12.0,0.,12.0,0.,12.0,0.,12.0
1979-07-14 07:10:00.990 ,2,0,0.,12.0,0.,12.0,0.,12.0,0.,12.0
1979-07-14 07:10:12.990 ,2,0,0.,12.0,0.,12.0,0.,12.0,0.,12.0
1979-07-14 07:10:24.990 ,1,1,0.,12.0,0.,12.0,0.,12.0,0.,12.0
1979-07-14 07:10:36.990 ,1,1,0.,12.0,0.,12.0,0.,12.0,0.,12.0
1979-07-14 07:10:48.990 ,1,0,0.,12.0,0.,12.0,0.,12.0,0.,12.0
1979-07-14 07:11:00.990 ,1,0,0.,12.0,0.,12.0,0.,12.0,0.,12.0
1979-07-14 07:11:12.990 ,0,1,0.,12.0,0.,12.0,0.,12.0,0.,12.0
1979-07-14 07:11:24.990 ,0,1,0.,12.0,0.,12.0,0.,12.0,0.,12.0
1979-07-14 07:11:36.990 ,0,0,0.,12.0,0.,12.0,0.,12.0,0.,12.0
1979-07-14 07:11:48.990 ,0,0,0.,12.0,0.,12.0,0.,12.0,0.,12.0
1979-07-14 07:12:00.990 ,0,1,0.,12.0,0.,12.0,0.,12.0,0.,12.0
1979-07-14 07:12:12.990 ,0,1,0.,12.0,0.,12.0,0.,12.0,0.,12.0
1979-07-14 07:12:24.990 ,0,0,0.,12.0,0.,12.0,0.,12.0,0.,12.0
1979-07-14 07:12:36.990 ,0,0,0.,12.0,0.,12.0,0.,12.0,0.,12.0
1979-07-14 07:12:48.990 ,1,1,0.,12.0,0.,12.0,0.,12.0,0.,12.0
1979-07-14 07:13:00.990 ,1,1,0.,12.0,0.,12.0,0.,12.0,0.,12.0
1979-07-14 07:13:12.990 ,1,0,0.,12.0,0.,12.0,0.,12.0,0.,12.0
1979-07-14 07:13:24.990 ,1,0,0.,12.0,0.,12.0,0.,12.0,0.,12.0
1979-07-14 07:13:36.990 ,2,1,0.,12.0,0.,12.0,0.,12.0,0.,12.0
1979-07-14 07:13:48.990 ,2,1,0.,12.0,0.,12.0,0.,12.0,0.,12.0
1979-07-14 07:14:00.990 ,2,0,0.,12.0,0.,12.0,0.,12.0,0.,12.0
1979-07-14 07:14:12.990 ,2,0,0.,12.0,0.,12.0,0.,12.0,0.,12.0
1979-07-14 07:14:24.990 ,3,1,0.,12.0,0.,12.0,0.,12.0,0.,12.0
1979-07-14 07:14:36.990 ,3,1,0.,12.0,0.,12.0,0.,12.0,0.,12.0
1979-07-14 07:14:48.990 ,3,0,0.,12.0,0.,12.0,0.,12.0,0.,12.0
1979-07-14 07:15:00.990 ,3,0,0.,12.0,0.,12.0,0.,12.0,0.,12.0
1979-07-14 07:15:12.990 ,4,1,0.,12.0,0.,12.0,0.,12.0,0.,12.0
1979-07-14 07:15:24.990 ,4,1,0.,12.0,0.,12.0,0.,12.0,0.,12.0
1979-07-14 07:15:36.990 ,4,0,0.,12.0,0.,12.0,0.,12.0,0.,12.0
1979-07-14 07:15:48.990 ,4,0,0.,12.0,0.,12.0,0.,12.0,0.,12.0
1979-07-14 07:16:00.990 ,5,1,0.,12.0,0.,12.0,0.,12.0,0.,12.0
1979-07-14 07:16:12.990 ,5,1,0.,12.0,0.,12.0,0.,12.0,0.,12.0
1979-07-14 07:16:24.990 ,5,0,0.,12.0,0.,12.0,0.,12.0,0.,12.0
1979-07-14 07:16:36.990 ,5,0,0.,12.0,0.,12.0,0.,12.0,0.,12.0
1979-07-14 07:16:48.990 ,6,1,0.,12.0,0.,12.0,0.,12.0,0.,12.0
1979-07-14 07:17:00.990 ,6,1,0.,12.0,0.,12.0,0.,12.0,0.,12.0
1979-07-14 07:17:12.990 ,6,0,0.,12.0,0.,12.0,0.,12.0,0.,12.0